Dallas Redbird, TX

10:21 AM CDT on October 17, 2017 (GMT -0500)
Redbird

Weather History for KRBD - December, 2013

Change the Weather History Date:

Tuesday, December 17, 2013

  Actual Average Record
Temperature  
Mean Temperature 54 °F -  
Max Temperature 71 °F 54 °F 78 °F (2006)
Min Temperature 36 °F 35 °F 21 °F (2000)
Degree Days  
Heating Degree Days 12    
Growing Degree Days 4 (Base 50)    
Moisture  
Dew Point 34 °F    
Average Humidity 53    
Maximum Humidity 82    
Minimum Humidity 25    
Precipitation  
Precipitation 0.00 in - - ()
Sea Level Pressure  
Sea Level Pressure 30.24 in    
Wind  
Wind Speed 2 mph (SSW)    
Max Wind Speed 6 mph    
Max Gust Speed -    
Visibility 10 miles    
Events      
Averages and records for this station are not official NWS values.
T = Trace of Precipitation, MM = Missing Value Source: NWS Daily Summary

Daily Weather History Graph

Daily Weather History Graph

Search for Another Location

Airport or City:

Trip Planner

Search our weather history database for the weather conditions in past years. The results will help you decide how hot, cold, wet, or windy it might be!

Date:

Astronomy

Dec. 17, 2013 Rise Set
Actual Time 7:23 AM CST 5:23 PM CST
Civil Twilight 6:56 AM CST 5:51 PM CST
Nautical Twilight 6:25 AM CST 6:22 PM CST
Astronomical Twilight 5:55 AM CST 6:52 PM CST
Moon 6:01 PM CST 7:23 AM CST
Length of Visible Light 10h 54m
Length of Day
10h 00m
Full, 100% of the Moon is Illuminated
Dec 17
Full
Dec 25
Last Quarter
Jan 1
New
Jan 7
First Quarter
Jan 15
Full

Hourly Weather History & Observations

Time (CST) Temp. Windchill Dew Point Humidity Pressure Visibility Wind Dir Wind Speed Gust Speed Precip Events Conditions
12:53 AM 50.0 °F - 33.1 °F 52% 30.19 in 10.0 mi Variable 4.6 mph - N/A   Clear
1:53 AM 48.9 °F - 33.1 °F 54% 30.19 in 10.0 mi Calm Calm - N/A   Clear
2:53 AM 44.1 °F - 32.0 °F 63% 30.20 in 10.0 mi Calm Calm - N/A   Clear
3:53 AM 39.0 °F 34.8 °F 32.0 °F 76% 30.20 in 10.0 mi South 5.8 mph - N/A   Clear
4:53 AM 39.0 °F - 30.9 °F 73% 30.20 in 10.0 mi Calm Calm - N/A   Clear
5:53 AM 37.0 °F - 32.0 °F 82% 30.22 in 10.0 mi Calm Calm - N/A   Clear
6:53 AM 36.0 °F - 30.9 °F 82% 30.23 in 10.0 mi Calm Calm - N/A   Clear
7:53 AM 36.0 °F 32.1 °F 30.9 °F 82% 30.24 in 10.0 mi SSW 4.6 mph - N/A   Clear
8:53 AM 50.0 °F - 36.0 °F 59% 30.26 in 10.0 mi NW 3.5 mph - N/A   Clear
9:53 AM 55.9 °F - 35.1 °F 45% 30.28 in 10.0 mi West 4.6 mph - N/A   Clear
10:53 AM 62.1 °F - 34.0 °F 35% 30.28 in 10.0 mi NW 3.5 mph - N/A   Clear
11:53 AM 64.0 °F - 36.0 °F 35% 30.27 in 10.0 mi NW 3.5 mph - N/A   Clear
12:53 PM 66.9 °F - 35.1 °F 31% 30.25 in 10.0 mi Calm Calm - N/A   Clear
1:53 PM 69.1 °F - 34.0 °F 27% 30.22 in 10.0 mi Calm Calm - N/A   Clear
2:53 PM 71.1 °F - 33.1 °F 25% 30.22 in 10.0 mi ENE 4.6 mph - N/A   Clear
3:53 PM 71.1 °F - 33.1 °F 25% 30.23 in 10.0 mi Calm Calm - N/A   Clear
4:53 PM 68.0 °F - 33.1 °F 27% 30.23 in 10.0 mi ESE 4.6 mph - N/A   Clear
5:53 PM 60.1 °F - 34.0 °F 38% 30.25 in 10.0 mi Calm Calm - N/A   Clear
6:53 PM 55.9 °F - 37.0 °F 49% 30.26 in 10.0 mi South 3.5 mph - N/A   Clear
7:53 PM 57.0 °F - 37.0 °F 47% 30.27 in 10.0 mi South 3.5 mph - N/A   Clear
8:53 PM 53.1 °F - 37.9 °F 57% 30.27 in 10.0 mi Calm Calm - N/A   Clear
9:53 PM 53.1 °F - 37.9 °F 57% 30.26 in 10.0 mi SSW 3.5 mph - N/A   Clear
10:53 PM 50.0 °F - 39.0 °F 66% 30.27 in 10.0 mi SW 3.5 mph - N/A   Clear
11:53 PM 42.1 °F 40.2 °F 36.0 °F 79% 30.26 in 10.0 mi South 3.5 mph - N/A   Clear